FW1140 Weather Reports


time (UTC)temp
C
wind
direction
speed
KPH
gust
KPH
rain 1hr
cm
rain 24hr
cm
rain mn
cm
humidity
%
barometer
mb
20260831050026 23 216 4.8 9.7 0.00 0.00 0.00 93 1001.4
20260831034541 22 226 0.0 3.2 0.00 0.00 0.00 93 1001.8
20260831033050 22 236 0.0 4.8 0.00 0.00 0.00 93 1001.8
20260831031511 22 228 1.6 4.8 0.00 0.00 0.00 92 1001.8
20260831030020 22 228 1.6 3.2 0.00 0.00 0.00 92 1001.6
20260831024633 22 228 0.0 4.8 0.00 0.00 0.00 91 1001.4
20260831023042 23 248 1.6 3.2 0.00 0.00 0.00 91 1001.4
20260831021558 23 224 0.0 4.8 0.00 0.00 0.00 90 1000.9
20260831020003 25 144 3.2 6.4 0.00 0.00 0.00 89 1000.8
20260831014542 24 216 3.2 6.4 0.00 0.00 0.00 88 1000.6
20260831013102 25 117 0.0 3.2 0.00 0.00 0.00 89 1000.7
20260831011601 25 117 0.0 3.2 0.00 0.00 0.00 86 1000.8
20260831010122 26 117 1.6 6.4 0.00 0.00 0.00 84 1000.8
20260831004551 26 127 1.6 4.8 0.00 0.00 0.00 83 1000.9
20260831003053 27 120 3.2 8.0 0.00 0.00 0.00 81 1001.1
20260831001554 27 94 3.2 9.7 0.00 0.00 0.00 79 1001.2
20260831000105 28 116 3.2 9.7 0.00 0.00 0.00 78 1001.2
20260830234534 28 93 4.8 9.7 0.00 0.00 0.00 80 1001.1
20260830233007 27 92 4.8 9.7 0.00 0.00 0.00 80 1000.9
20260830231526 28 70 3.2 12.9 0.00 0.00 0.00 78 1001.1
20260830230049 29 56 4.8 12.9 0.00 0.00 0.00 75 1001.2
20260830224525 30 81 6.4 12.9 0.00 0.00 0.00 74 1001.2
20260830223018 29 40 4.8 11.3 0.00 0.00 0.00 75 1001.4
20260830221551 29 58 8.0 14.5 0.00 0.00 0.00 74 1001.3
20260830220024 28 113 4.8 14.5 0.00 0.00 0.00 74 1001.3
20260830214519 29 72 3.2 11.3 0.00 0.00 0.00 74 1001.4
20260830213031 29 43 6.4 16.1 0.00 0.00 0.00 74 1001.4
20260830211525 28 94 6.4 14.5 0.00 0.00 0.00 74 1001.6
20260830210042 28 60 8.0 16.1 0.00 0.00 0.00 75 1001.7
20260830204545 28 130 6.4 17.7 0.00 0.00 0.00 75 1001.8
20260830203123 26 93 4.8 11.3 0.00 0.00 0.00 80 1002.1
20260830201610 25 57 3.2 8.0 0.00 0.00 0.00 81 1002.3
20260830194552 25 131 6.4 16.1 0.00 0.00 0.00 82 1002.3
20260830193023 25 129 4.8 16.1 0.00 0.00 0.00 82 1002.5
20260830191540 25 134 8.0 16.1 0.00 0.00 0.00 82 1002.8
20260830190041 25 127 4.8 11.3 0.00 0.00 0.00 84 1002.9
20260830184604 23 119 4.8 12.9 0.00 0.00 0.00 85 1003.0
20260830183007 23 120 4.8 11.3 0.00 0.00 0.00 86 1002.9
20260830181533 23 105 4.8 11.3 0.00 0.00 0.00 87 1003.0
20260830180046 22 69 6.4 12.9 0.00 0.00 0.00 88 1003.0
20260830174525 22 95 4.8 12.9 0.00 0.00 0.00 88 1003.1
20260830173009 22 113 4.8 11.3 0.00 0.00 0.00 89 1003.3
20260830171600 22 86 6.4 12.9 0.00 0.00 0.00 90 1003.3
20260830170042 21 119 4.8 11.3 0.00 0.00 0.00 91 1003.3
20260830164558 21 128 6.4 14.5 0.00 0.00 0.00 94 1003.3
20260830163103 21 29 6.4 11.3 0.00 0.00 0.00 95 1003.4
20260830161540 20 92 4.8 11.3 0.00 0.00 0.00 95 1003.5
20260830160008 20 75 6.4 12.9 0.00 0.00 0.00 95 1003.5
20260830154529 20 103 4.8 12.9 0.00 0.00 0.00 95 1003.6
20260830153028 20 73 4.8 9.7 0.00 0.00 0.00 95 1003.7
20260830151542 20 58 4.8 11.3 0.00 0.00 0.00 95 1003.6
20260830150035 20 77 3.2 9.7 0.00 0.00 0.00 95 1003.5
20260830144533 20 56 3.2 8.0 0.00 0.00 0.00 95 1003.5
20260830143052 20 73 4.8 8.0 0.00 0.00 0.00 95 1003.3
20260830141539 20 103 3.2 8.0 0.00 0.00 0.00 95 1003.3
20260830140031 20 72 3.2 9.7 0.00 0.00 0.00 95 1003.1
20260830134557 20 100 3.2 9.7 0.00 0.00 0.00 95 1003.1
20260830133012 19 68 1.6 6.4 0.00 0.00 0.00 95 1003.4
20260830131501 19 63 1.6 6.4 0.00 0.00 0.00 95 1003.3
20260830130024 19 108 1.6 8.0 0.00 0.00 0.00 95 1003.3
20260830124551 19 105 1.6 8.0 0.00 0.00 0.00 94 1003.2
20260830123136 19 71 1.6 6.4 0.00 0.00 0.00 94 1002.9
20260830121504 19 68 0.0 4.8 0.00 0.00 0.00 94 1003.0
20260830120018 19 84 0.0 3.2 0.00 0.00 0.00 94 1003.0
20260830114525 19 71 1.6 6.4 0.00 0.00 0.00 94 1002.9
20260830113027 19 108 1.6 6.4 0.00 0.00 0.00 94 1003.1
20260830111555 19 136 1.6 4.8 0.00 0.00 0.00 94 1003.2
20260830110140 18 94 1.6 4.8 0.00 0.00 0.00 94 1002.8
20260830104611 18 129 1.6 6.4 0.00 0.00 0.00 94 1002.8
20260830103034 18 359 0.0 4.8 0.00 0.00 0.00 94 1003.3
20260830101548 18 33 0.0 3.2 0.00 0.00 0.00 94 1003.2
20260830100104 18 33 0.0 8.0 0.00 0.00 0.00 94 1003.5
20260830094619 18 8 1.6 4.8 0.00 0.00 0.00 94 1003.6
20260830093121 18 8 0.0 3.2 0.00 0.00 0.00 94 1003.7
20260830091504 18 8 1.6 4.8 0.00 0.00 0.00 94 1003.8
20260830090052 18 8 0.0 0.0 0.00 0.00 0.00 94 1003.7
20260830084555 18 8 0.0 0.0 0.00 0.00 0.00 93 1003.5
20260830083006 18 8 0.0 0.0 0.00 0.00 0.00 93 1003.3
20260830081557 18 8 0.0 0.0 0.00 0.00 0.00 93 1003.0
20260830080013 18 8 0.0 0.0 0.00 0.00 0.00 93 1003.2
20260830074503 19 8 0.0 0.0 0.00 0.00 0.00 93 1003.3
20260830073008 19 8 0.0 3.2 0.00 0.00 0.00 93 1003.3
20260830071513 18 8 0.0 0.0 0.00 0.00 0.00 93 1003.3
20260830070141 19 8 0.0 3.2 0.00 0.00 0.00 93 1003.6
20260830064516 19 8 0.0 3.2 0.00 0.00 0.00 93 1003.9
20260830063049 19 8 0.0 3.2 0.00 0.00 0.00 93 1003.8
20260830061503 19 8 0.0 3.2 0.00 0.00 0.00 93 1004.4
20260830060010 19 8 0.0 3.2 0.00 0.00 0.00 93 1004.3
20260830054522 19 8 0.0 0.0 0.00 0.00 0.00 92 1004.4
20260830053057 20 8 0.0 1.6 0.00 0.00 0.00 92 1004.3
20260830051518 20 8 0.0 4.8 0.00 0.00 0.00 92 1004.1